Location: Boiro
(42.6475°N, 8.8834°W)
Time: 06:17:41
(UTC+02:00)

ISS - Visible Passes

Search period start: 17 October 2021 00:00
Search period end: 27 October 2021 00:00
Orbit: 417 x 423 km, 51.6° (Epoch: 16 October)

Date Brightness Start Highest point End Pass type
(mag) Time Alt. Az. Time Alt. Az. Time Alt. Az.
21 Oct -1.1 07:45:29 10° S 07:48:02 20° SE 07:50:35 10° E visible
22 Oct -0.7 06:59:35 10° SSE 07:01:00 12° SE 07:02:25 10° ESE visible
23 Oct -3.2 07:47:14 13° SW 07:50:10 57° SE 07:53:29 10° ENE visible
24 Oct -2.4 07:02:36 32° SSE 07:03:00 34° SE 07:06:05 10° ENE visible
25 Oct -0.5 06:17:46 14° E 06:17:46 14° E 06:18:28 10° E visible
25 Oct -3.5 07:50:47 25° W 07:52:28 54° NNW 07:55:48 10° NE visible
26 Oct -3.2 07:05:49 56° NE 07:05:49 56° NE 07:08:34 10° NE visible
